| time (UTC) | temp F | wind direction | speed knots | gust knots | rain 1hr in | rain 24hr in | rain mn in | humidity % | barometer mb |
| 20260505012006 | 51 | 252 | 0.9 | 6.1 | 0.00 | 0.00 | 0.00 | 84 | 1015.4 |
| 20260505011505 | 51 | 223 | 1.7 | 5.2 | 0.00 | 0.00 | 0.00 | 84 | 1015.3 |
| 20260505011005 | 51 | 227 | 0.9 | 6.1 | 0.00 | 0.00 | 0.00 | 84 | 1015.2 |
| 20260505010504 | 51 | 243 | 0.0 | 7.0 | 0.00 | 0.00 | 0.00 | 84 | 1015.1 |
| 20260505010104 | 51 | 241 | 0.9 | 7.0 | 0.00 | 0.00 | 0.00 | 84 | 1015.1 |
| 20260505005504 | 51 | 235 | 0.9 | 6.1 | 0.00 | 0.00 | 0.00 | 84 | 1015.0 |
| 20260505005003 | 51 | 248 | 1.7 | 8.7 | 0.00 | 0.00 | 0.00 | 83 | 1015.0 |
| 20260505004502 | 51 | 244 | 1.7 | 8.7 | 0.00 | 0.00 | 0.00 | 83 | 1014.9 |
| 20260505004002 | 51 | 223 | 2.6 | 9.6 | 0.00 | 0.00 | 0.00 | 83 | 1014.9 |
| 20260505003506 | 51 | 279 | 0.9 | 6.1 | 0.00 | 0.00 | 0.00 | 83 | 1014.8 |
| 20260505003002 | 51 | 310 | 1.7 | 13.9 | 0.00 | 0.00 | 0.00 | 82 | 1014.7 |
| 20260505002502 | 51 | 150 | 1.7 | 13.9 | 0.00 | 0.00 | 0.00 | 82 | 1014.6 |
| 20260505002003 | 51 | 194 | 2.6 | 5.2 | 0.00 | 0.00 | 0.00 | 82 | 1014.6 |
| 20260505001502 | 51 | 231 | 1.7 | 11.3 | 0.00 | 0.00 | 0.00 | 82 | 1014.5 |
| 20260505001004 | 51 | 300 | 3.5 | 11.3 | 0.00 | 0.00 | 0.00 | 82 | 1014.5 |
| 20260505000501 | 52 | 263 | 1.7 | 10.4 | 0.00 | 0.00 | 0.00 | 82 | 1014.5 |
| 20260505000001 | 52 | 248 | 3.5 | 10.4 | 0.00 | 0.00 | 0.00 | 81 | 1014.5 |
| 20260504235503 | 52 | 304 | 2.6 | 9.6 | 0.00 | 0.00 | 0.00 | 81 | 1014.5 |
| 20260504235001 | 52 | 221 | 3.5 | 9.6 | 0.00 | 0.00 | 0.00 | 80 | 1014.3 |
| 20260504234601 | 52 | 163 | 2.6 | 10.4 | 0.00 | 0.00 | 0.00 | 79 | 1014.3 |
| 20260504234100 | 53 | 280 | 3.5 | 10.4 | 0.00 | 0.00 | 0.00 | 79 | 1014.2 |
| 20260504233559 | 53 | 249 | 1.7 | 9.6 | 0.00 | 0.00 | 0.00 | 78 | 1014.2 |
| 20260504233111 | 53 | 233 | 2.6 | 8.7 | 0.00 | 0.00 | 0.00 | 77 | 1014.2 |
| 20260504232559 | 54 | 209 | 1.7 | 13.9 | 0.00 | 0.00 | 0.00 | 77 | 1014.0 |
| 20260504232058 | 54 | 239 | 2.6 | 9.6 | 0.00 | 0.00 | 0.00 | 76 | 1014.0 |
| 20260504231601 | 54 | 215 | 3.5 | 9.6 | 0.00 | 0.00 | 0.00 | 75 | 1014.0 |
| 20260504231059 | 55 | 224 | 3.5 | 9.6 | 0.00 | 0.00 | 0.00 | 74 | 1013.9 |
| 20260504230557 | 55 | 191 | 3.5 | 8.7 | 0.00 | 0.00 | 0.00 | 73 | 1013.9 |
| 20260504230057 | 55 | 257 | 1.7 | 9.6 | 0.00 | 0.00 | 0.00 | 73 | 1013.8 |
| 20260504225557 | 56 | 184 | 2.6 | 10.4 | 0.00 | 0.00 | 0.00 | 72 | 1013.8 |
| 20260504225056 | 56 | 164 | 4.3 | 10.4 | 0.00 | 0.00 | 0.00 | 71 | 1013.9 |
| 20260504224602 | 56 | 244 | 2.6 | 11.3 | 0.00 | 0.00 | 0.00 | 71 | 1013.9 |
| 20260504224056 | 56 | 249 | 3.5 | 11.3 | 0.00 | 0.00 | 0.00 | 71 | 1013.8 |
| 20260504223555 | 56 | 209 | 2.6 | 11.3 | 0.00 | 0.00 | 0.00 | 70 | 1013.9 |
| 20260504223126 | 57 | 192 | 3.5 | 9.6 | 0.00 | 0.00 | 0.00 | 70 | 1013.6 |
| 20260504222555 | 57 | 138 | 2.6 | 13.0 | 0.00 | 0.00 | 0.00 | 69 | 1013.7 |
| 20260504222055 | 57 | 227 | 6.1 | 13.0 | 0.00 | 0.00 | 0.00 | 68 | 1013.8 |
| 20260504221555 | 58 | 197 | 3.5 | 12.2 | 0.00 | 0.00 | 0.00 | 66 | 1013.9 |
| 20260504221058 | 58 | 108 | 3.5 | 9.6 | 0.00 | 0.00 | 0.00 | 65 | 1013.8 |
| 20260504220554 | 59 | 250 | 2.6 | 11.3 | 0.00 | 0.00 | 0.00 | 64 | 1013.8 |
| 20260504220056 | 59 | 313 | 1.7 | 8.7 | 0.00 | 0.00 | 0.00 | 63 | 1013.7 |
| 20260504215554 | 59 | 189 | 5.2 | 10.4 | 0.00 | 0.00 | 0.00 | 62 | 1013.7 |
| 20260504215054 | 60 | 265 | 1.7 | 7.8 | 0.00 | 0.00 | 0.00 | 61 | 1013.7 |
| 20260504214553 | 60 | 273 | 0.9 | 13.0 | 0.00 | 0.00 | 0.00 | 60 | 1013.7 |
| 20260504214053 | 60 | 269 | 3.5 | 13.0 | 0.00 | 0.00 | 0.00 | 59 | 1013.7 |
| 20260504213552 | 60 | 234 | 4.3 | 12.2 | 0.00 | 0.00 | 0.00 | 59 | 1013.7 |
| 20260504213101 | 61 | 150 | 1.7 | 9.6 | 0.00 | 0.00 | 0.00 | 58 | 1013.6 |
| 20260504212653 | 61 | 165 | 4.3 | 9.6 | 0.00 | 0.00 | 0.00 | 58 | 1013.7 |
| 20260504212052 | 61 | 305 | 3.5 | 13.9 | 0.00 | 0.00 | 0.00 | 58 | 1013.6 |
| 20260504211552 | 61 | 175 | 4.3 | 13.9 | 0.00 | 0.00 | 0.00 | 57 | 1013.6 |
| 20260504211051 | 61 | 165 | 4.3 | 9.6 | 0.00 | 0.00 | 0.00 | 58 | 1013.6 |
| 20260504210551 | 61 | 225 | 4.3 | 9.6 | 0.00 | 0.00 | 0.00 | 58 | 1013.6 |
| 20260504210057 | 61 | 192 | 2.6 | 12.2 | 0.00 | 0.00 | 0.00 | 58 | 1013.7 |
| 20260504205554 | 61 | 242 | 5.2 | 11.3 | 0.00 | 0.00 | 0.00 | 57 | 1013.6 |
| 20260504205050 | 61 | 250 | 3.5 | 15.6 | 0.00 | 0.00 | 0.00 | 57 | 1013.7 |
| 20260504204550 | 61 | 153 | 5.2 | 15.6 | 0.00 | 0.00 | 0.00 | 57 | 1013.7 |
| 20260504204050 | 61 | 181 | 2.6 | 13.0 | 0.00 | 0.00 | 0.00 | 57 | 1013.6 |
| 20260504203550 | 62 | 200 | 4.3 | 13.0 | 0.00 | 0.00 | 0.00 | 56 | 1013.6 |
| 20260504203105 | 62 | 159 | 6.1 | 12.2 | 0.00 | 0.00 | 0.00 | 55 | 1013.5 |
| 20260504202550 | 62 | 258 | 4.3 | 12.2 | 0.00 | 0.00 | 0.00 | 55 | 1013.4 |
| 20260504202049 | 62 | 234 | 1.7 | 14.8 | 0.00 | 0.00 | 0.00 | 56 | 1013.4 |
| 20260504201554 | 62 | 298 | 5.2 | 14.8 | 0.00 | 0.00 | 0.00 | 56 | 1013.4 |
| 20260504201048 | 63 | 201 | 4.3 | 13.0 | 0.00 | 0.00 | 0.00 | 55 | 1013.5 |
| 20260504200547 | 63 | 205 | 5.2 | 12.2 | 0.00 | 0.00 | 0.00 | 55 | 1013.5 |
| 20260504200047 | 63 | 135 | 2.6 | 11.3 | 0.00 | 0.00 | 0.00 | 55 | 1013.6 |
| 20260504195547 | 63 | 193 | 5.2 | 12.2 | 0.00 | 0.00 | 0.00 | 55 | 1013.6 |
| 20260504195046 | 63 | 219 | 6.1 | 12.2 | 0.00 | 0.00 | 0.00 | 55 | 1013.5 |
| 20260504194546 | 63 | 249 | 4.3 | 13.9 | 0.00 | 0.00 | 0.00 | 55 | 1013.6 |
| 20260504194146 | 62 | 235 | 2.6 | 13.9 | 0.00 | 0.00 | 0.00 | 57 | 1013.6 |
| 20260504193549 | 62 | 223 | 2.6 | 12.2 | 0.00 | 0.00 | 0.00 | 58 | 1013.5 |
| 20260504193046 | 62 | 210 | 5.2 | 12.2 | 0.00 | 0.00 | 0.00 | 56 | 1013.6 |
| 20260504192544 | 62 | 193 | 3.5 | 13.9 | 0.00 | 0.00 | 0.00 | 57 | 1013.7 |
| 20260504192044 | 62 | 232 | 5.2 | 15.6 | 0.00 | 0.00 | 0.00 | 56 | 1013.5 |
| 20260504191554 | 63 | 220 | 5.2 | 16.5 | 0.00 | 0.00 | 0.00 | 54 | 1013.7 |
| 20260504191044 | 62 | 206 | 5.2 | 16.5 | 0.00 | 0.00 | 0.00 | 53 | 1013.7 |
| 20260504190543 | 62 | 213 | 3.5 | 13.9 | 0.00 | 0.00 | 0.00 | 53 | 1013.8 |
| 20260504190046 | 63 | 284 | 5.2 | 13.9 | 0.00 | 0.00 | 0.00 | 52 | 1013.8 |
| 20260504185542 | 63 | 175 | 3.5 | 14.8 | 0.00 | 0.00 | 0.00 | 54 | 1013.8 |
| 20260504185042 | 63 | 232 | 3.5 | 12.2 | 0.00 | 0.00 | 0.00 | 53 | 1013.8 |
| 20260504184541 | 63 | 296 | 4.3 | 16.5 | 0.00 | 0.00 | 0.00 | 54 | 1013.9 |
| 20260504184041 | 62 | 192 | 7.8 | 16.5 | 0.00 | 0.00 | 0.00 | 52 | 1013.7 |
| 20260504183540 | 63 | 338 | 4.3 | 13.0 | 0.00 | 0.00 | 0.00 | 54 | 1013.9 |
| 20260504183039 | 62 | 82 | 4.3 | 13.9 | 0.00 | 0.00 | 0.00 | 55 | 1014.1 |
| 20260504182543 | 63 | 279 | 4.3 | 13.9 | 0.00 | 0.00 | 0.00 | 53 | 1014.1 |
| 20260504182039 | 64 | 235 | 5.2 | 13.9 | 0.00 | 0.00 | 0.00 | 51 | 1014.3 |
| 20260504181544 | 64 | 173 | 5.2 | 13.0 | 0.00 | 0.00 | 0.00 | 51 | 1014.1 |
| 20260504181038 | 64 | 232 | 2.6 | 9.6 | 0.00 | 0.00 | 0.00 | 51 | 1014.3 |
| 20260504180537 | 63 | 250 | 3.5 | 15.6 | 0.00 | 0.00 | 0.00 | 51 | 1014.3 |
| 20260504180037 | 63 | 301 | 7.0 | 15.6 | 0.00 | 0.00 | 0.00 | 51 | 1014.4 |
| 20260504175537 | 63 | 257 | 7.0 | 15.6 | 0.00 | 0.00 | 0.00 | 51 | 1014.3 |
| 20260504175037 | 63 | 238 | 4.3 | 13.0 | 0.00 | 0.00 | 0.00 | 51 | 1014.4 |
| 20260504174536 | 63 | 244 | 5.2 | 13.0 | 0.00 | 0.00 | 0.00 | 51 | 1014.4 |
| 20260504174036 | 62 | 186 | 2.6 | 13.0 | 0.00 | 0.00 | 0.00 | 53 | 1014.4 |
| 20260504173537 | 63 | 249 | 5.2 | 13.0 | 0.00 | 0.00 | 0.00 | 49 | 1014.5 |
| 20260504173036 | 63 | 203 | 3.5 | 10.4 | 0.00 | 0.00 | 0.00 | 49 | 1014.5 |
| 20260504172538 | 63 | 216 | 3.5 | 15.6 | 0.00 | 0.00 | 0.00 | 49 | 1014.5 |
| 20260504172035 | 63 | 245 | 5.2 | 15.6 | 0.00 | 0.00 | 0.00 | 46 | 1014.4 |
| 20260504171537 | 64 | 217 | 6.1 | 13.0 | 0.00 | 0.00 | 0.00 | 49 | 1014.5 |
| 20260504171035 | 63 | 239 | 4.3 | 14.8 | 0.00 | 0.00 | 0.00 | 46 | 1014.4 |
| 20260504170534 | 63 | 188 | 3.5 | 16.5 | 0.00 | 0.00 | 0.00 | 46 | 1014.4 |
| 20260504151023 | 62 | 274 | 3.5 | 11.3 | 0.00 | 0.00 | 0.00 | 47 | 1015.4 |
| 20260504150524 | 62 | 296 | 4.3 | 10.4 | 0.00 | 0.00 | 0.00 | 45 | 1015.6 |
| 20260504141018 | 60 | 260 | 8.7 | 17.4 | 0.00 | 0.00 | 0.00 | 42 | 1015.8 |
| 20260504140516 | 60 | 219 | 6.1 | 17.4 | 0.00 | 0.00 | 0.00 | 46 | 1015.8 |
| 20260504130506 | 57 | 265 | 4.3 | 11.3 | 0.00 | 0.00 | 0.00 | 52 | 1016.1 |
| 20260504110544 | 51 | 219 | 3.5 | 7.0 | 0.00 | 0.00 | 0.00 | 71 | 1016.3 |
| 20260504100527 | 44 | 252 | 0.9 | 3.5 | 0.00 | 0.00 | 0.00 | 84 | 1015.9 |
| 20260504081514 | 37 | 227 | 0.0 | 1.7 | 0.00 | 0.00 | 0.00 | 91 | 1015.5 |
| 20260504081013 | 37 | 227 | 0.0 | 1.7 | 0.00 | 0.00 | 0.00 | 91 | 1015.6 |
| 20260504080513 | 37 | 227 | 0.0 | 1.7 | 0.00 | 0.00 | 0.00 | 91 | 1015.6 |
| 20260504050554 | 37 | 288 | 0.0 | 1.7 | 0.00 | 0.00 | 0.00 | 85 | 1014.9 |
| 20260504045552 | 37 | 288 | 0.0 | 1.7 | 0.00 | 0.00 | 0.00 | 85 | 1015.1 |
| 20260504045051 | 37 | 288 | 0.0 | 1.7 | 0.00 | 0.00 | 0.00 | 85 | 1015.1 |
| 20260504044601 | 37 | 288 | 0.0 | 1.7 | 0.00 | 0.00 | 0.00 | 85 | 1015.1 |
| 20260504044051 | 37 | 288 | 0.0 | 1.7 | 0.00 | 0.00 | 0.00 | 85 | 1015.1 |
| 20260504043549 | 38 | 288 | 0.0 | 1.7 | 0.00 | 0.00 | 0.00 | 84 | 1015.1 |
| 20260504043054 | 38 | 288 | 0.0 | 1.7 | 0.00 | 0.00 | 0.00 | 84 | 1015.0 |
| 20260504042546 | 38 | 288 | 0.0 | 1.7 | 0.00 | 0.00 | 0.00 | 83 | 1015.0 |
| 20260504042046 | 38 | 288 | 0.0 | 1.7 | 0.00 | 0.00 | 0.00 | 82 | 1015.0 |
| 20260504041546 | 38 | 288 | 0.0 | 1.7 | 0.00 | 0.00 | 0.00 | 81 | 1015.0 |
| 20260504041046 | 39 | 288 | 0.0 | 1.7 | 0.00 | 0.00 | 0.00 | 80 | 1015.0 |
| 20260504040543 | 39 | 288 | 0.0 | 1.7 | 0.00 | 0.00 | 0.00 | 80 | 1014.9 |
| 20260504040059 | 39 | 288 | 0.0 | 1.7 | 0.00 | 0.00 | 0.00 | 79 | 1014.8 |
| 20260504035540 | 40 | 288 | 0.0 | 1.7 | 0.00 | 0.00 | 0.00 | 78 | 1014.8 |
| 20260504035038 | 40 | 288 | 0.0 | 1.7 | 0.00 | 0.00 | 0.00 | 77 | 1014.8 |
| 20260504034555 | 41 | 288 | 0.0 | 1.7 | 0.00 | 0.00 | 0.00 | 77 | 1014.9 |
| 20260504034040 | 41 | 288 | 0.0 | 1.7 | 0.00 | 0.00 | 0.00 | 77 | 1014.8 |
| 20260504033539 | 41 | 288 | 0.0 | 0.0 | 0.00 | 0.00 | 0.00 | 76 | 1014.8 |
| 20260504033037 | 42 | 288 | 0.0 | 0.9 | 0.00 | 0.00 | 0.00 | 75 | 1014.7 |
| 20260504032537 | 42 | 288 | 0.0 | 0.9 | 0.00 | 0.00 | 0.00 | 75 | 1014.8 |
| 20260504032040 | 42 | 288 | 0.0 | 1.7 | 0.00 | 0.00 | 0.00 | 74 | 1014.7 |
| 20260504031536 | 43 | 288 | 0.0 | 1.7 | 0.00 | 0.00 | 0.00 | 73 | 1014.7 |
| 20260504031035 | 43 | 288 | 0.0 | 0.9 | 0.00 | 0.00 | 0.00 | 74 | 1014.7 |
| 20260504030535 | 42 | 288 | 0.0 | 1.7 | 0.00 | 0.00 | 0.00 | 72 | 1014.6 |
| 20260504030037 | 42 | 288 | 0.0 | 1.7 | 0.00 | 0.00 | 0.00 | 71 | 1014.6 |
| 20260504025534 | 42 | 321 | 0.0 | 0.9 | 0.00 | 0.00 | 0.00 | 69 | 1014.5 |
| 20260504025034 | 42 | 321 | 0.9 | 0.9 | 0.00 | 0.00 | 0.00 | 69 | 1014.5 |
| 20260504024536 | 41 | 321 | 0.0 | 0.9 | 0.00 | 0.00 | 0.00 | 69 | 1014.5 |
| 20260504024035 | 41 | 321 | 0.0 | 1.7 | 0.00 | 0.00 | 0.00 | 69 | 1014.6 |
| 20260504023535 | 41 | 321 | 0.0 | 1.7 | 0.00 | 0.00 | 0.00 | 67 | 1014.6 |
| 20260504023034 | 41 | 321 | 0.0 | 1.7 | 0.00 | 0.00 | 0.00 | 69 | 1014.6 |
| 20260504022534 | 41 | 321 | 0.0 | 1.7 | 0.00 | 0.00 | 0.00 | 68 | 1014.6 |
| 20260504022038 | 41 | 321 | 0.0 | 0.0 | 0.00 | 0.00 | 0.00 | 68 | 1014.6 |
| 20260504021535 | 41 | 321 | 0.0 | 0.0 | 0.00 | 0.00 | 0.00 | 68 | 1014.5 |
| 20260504021032 | 41 | 321 | 0.0 | 0.0 | 0.00 | 0.00 | 0.00 | 68 | 1014.6 |
| 20260504020532 | 41 | 321 | 0.0 | 0.0 | 0.00 | 0.00 | 0.00 | 65 | 1014.5 |
| 20260504020031 | 41 | 321 | 0.0 | 0.0 | 0.00 | 0.00 | 0.00 | 65 | 1014.5 |
| 20260504015531 | 41 | 321 | 0.0 | 0.0 | 0.00 | 0.00 | 0.00 | 64 | 1014.5 |
| 20260504015030 | 42 | 321 | 0.0 | 0.0 | 0.00 | 0.00 | 0.00 | 64 | 1014.4 |
| 20260504014530 | 42 | 321 | 0.0 | 0.0 | 0.00 | 0.00 | 0.00 | 64 | 1014.4 |
| 20260504014028 | 42 | 321 | 0.0 | 0.0 | 0.00 | 0.00 | 0.00 | 63 | 1014.3 |
| 20260504013527 | 42 | 321 | 0.0 | 0.0 | 0.00 | 0.00 | 0.00 | 62 | 1014.2 |
| 20260504013033 | 43 | 321 | 0.0 | 0.0 | 0.00 | 0.00 | 0.00 | 62 | 1014.2 |
| 20260504012530 | 43 | 321 | 0.0 | 0.0 | 0.00 | 0.00 | 0.00 | 60 | 1014.2 |